MV Sally Archer — WDB7650 — position and weather

sailwx.info

Track history (hours):
 
Tides and Currents Weather Stations Pressure Air Temp Water Temp Dewpoint Dewpoint Depression Visibility Wind Speed Wind Dir Waves Ship Positions

MV Sally Archer

Owner: American River Transportation Co., Saint Louis, MO. More information available from US FCC via Universal Licensing System and Coast Guard Vessel Documentation Center.

Last reported at 2017-Nov-27 18:48 UTC. Time now 2017-Dec-12 19:56 UTC.
Position N 31°59' W 091°07'.
Warning: this ship's position is 15 days out of date.

Length 60 m; draft 3.5 m.

Type: Towing. MMSI: 366945650.

Date/timePositionNaut miles runAvg speedWind from/ knotsBaromVisibWave heightAir tempDewpointWater temp
2017-Nov-27 18:48N 31°59' W 091°07'7 6.8
2017-Nov-27 17:46N 32°06' W 091°06'2 6.3
2017-Nov-27 17:30N 32°08' W 091°06'4 7.1
2017-Nov-27 17:00N 32°07' W 091°02'4 7.8
2017-Nov-27 16:29N 32°11' W 090°60'4 8.7
2017-Nov-27 16:00N 32°15' W 090°59'4 7.8
2017-Nov-27 15:30N 32°18' W 090°56'3 5.9
2017-Nov-27 15:00N 32°20' W 090°54'4 7.2
2017-Nov-27 14:30N 32°21' W 090°59'3 6.3
2017-Nov-27 14:00N 32°24' W 090°59'4 7.9
2017-Nov-27 13:30N 32°26' W 091°03'4 8.2
2017-Nov-27 13:00N 32°29' W 091°07'4 8.6
2017-Nov-27 12:30N 32°33' W 091°06'4 8.5
2017-Nov-27 12:00N 32°37' W 091°09'4 7.8
2017-Nov-27 11:29N 32°40' W 091°07'4 7.1
2017-Nov-27 10:52N 32°44' W 091°03'4 8.6
2017-Nov-27 10:23N 32°44' W 091°08'  
2017-Nov-23 00:08N 32°40' W 091°08'0 3.8
2017-Nov-23 00:00N 32°40' W 091°08'2 3.3
2017-Nov-22 23:30N 32°38' W 091°09'0 0.6
2017-Nov-22 23:00N 32°38' W 091°09'2 3.7
2017-Nov-22 22:30N 32°36' W 091°09'2 3.9
2017-Nov-22 22:00N 32°35' W 091°07'2 3.9
2017-Nov-22 21:30N 32°33' W 091°06'2 3.8
2017-Nov-22 21:00N 32°31' W 091°06'2 4.6
2017-Nov-22 20:30N 32°29' W 091°07'2 3.8
2017-Nov-22 20:00N 32°28' W 091°06'2 4.3
2017-Nov-22 19:30N 32°26' W 091°04'  
2017-Nov-18 06:54N 31°51' W 091°18'10 6.8
2017-Nov-18 05:24N 31°59' W 091°10'3 8.5
2017-Nov-18 05:00N 31°59' W 091°06'7 7.2
2017-Nov-18 04:06N 32°06' W 091°06'1 9.0
2017-Nov-18 04:00N 32°07' W 091°06'2 3.2
2017-Nov-18 03:30N 32°08' W 091°05'4 7.4
2017-Nov-18 02:59N 32°08' W 091°01'4 8.8
2017-Nov-18 02:30N 32°12' W 090°59'4 8.6
2017-Nov-18 02:00N 32°16' W 090°58'4 8.4
2017-Nov-18 01:30N 32°19' W 090°54'2 3.2
2017-Nov-18 01:00N 32°20' W 090°54'2 4.6
2017-Nov-18 00:30N 32°21' W 090°57'0 0.2
2017-Nov-18 00:00N 32°21' W 090°57'0 0.0
2017-Nov-17 23:30N 32°21' W 090°57'0 0.0
2017-Nov-17 23:00N 32°21' W 090°57'0 0.0
2017-Nov-17 22:30N 32°21' W 090°57'0 0.0
2017-Nov-17 22:00N 32°21' W 090°57'0 0.0
2017-Nov-17 21:30N 32°21' W 090°57'0 0.0
2017-Nov-17 21:00N 32°21' W 090°57'0 0.0
2017-Nov-17 20:30N 32°21' W 090°57'0 0.0
2017-Nov-17 20:00N 32°21' W 090°57'0 0.0
2017-Nov-17 19:30N 32°21' W 090°57'0 0.0
2017-Nov-17 19:00N 32°21' W 090°57'  
Track history (hours):
 
Tides and Currents Weather Stations Pressure Air Temp Water Temp Dewpoint Dewpoint Depression Visibility Wind Speed Wind Dir Waves Ship Positions

MV Sally Archer

Owner: American River Transportation Co., Saint Louis, MO. More information available from US FCC via Universal Licensing System and Coast Guard Vessel Documentation Center.

Last reported at 2017-Nov-27 18:48 UTC. Time now 2017-Dec-12 19:57 UTC.
Position N 31°59' W 091°07'.
Warning: this ship's position is 15 days out of date.

Length 60 m; draft 3.5 m.

Type: Towing. MMSI: 366945650.

Date/timePositionNaut miles runAvg speedWind from/ knotsBaromVisibWave heightAir tempDewpointWater temp
2017-Nov-27 18:48N 31°59' W 091°07'7 6.8
2017-Nov-27 17:46N 32°06' W 091°06'2 6.3
2017-Nov-27 17:30N 32°08' W 091°06'4 7.1
2017-Nov-27 17:00N 32°07' W 091°02'4 7.8
2017-Nov-27 16:29N 32°11' W 090°60'4 8.7
2017-Nov-27 16:00N 32°15' W 090°59'4 7.8
2017-Nov-27 15:30N 32°18' W 090°56'3 5.9
2017-Nov-27 15:00N 32°20' W 090°54'4 7.2
2017-Nov-27 14:30N 32°21' W 090°59'3 6.3
2017-Nov-27 14:00N 32°24' W 090°59'4 7.9
2017-Nov-27 13:30N 32°26' W 091°03'4 8.2
2017-Nov-27 13:00N 32°29' W 091°07'4 8.6
2017-Nov-27 12:30N 32°33' W 091°06'4 8.5
2017-Nov-27 12:00N 32°37' W 091°09'4 7.8
2017-Nov-27 11:29N 32°40' W 091°07'4 7.1
2017-Nov-27 10:52N 32°44' W 091°03'4 8.6
2017-Nov-27 10:23N 32°44' W 091°08'  
2017-Nov-23 00:08N 32°40' W 091°08'0 3.8
2017-Nov-23 00:00N 32°40' W 091°08'2 3.3
2017-Nov-22 23:30N 32°38' W 091°09'0 0.6
2017-Nov-22 23:00N 32°38' W 091°09'2 3.7
2017-Nov-22 22:30N 32°36' W 091°09'2 3.9
2017-Nov-22 22:00N 32°35' W 091°07'2 3.9
2017-Nov-22 21:30N 32°33' W 091°06'2 3.8
2017-Nov-22 21:00N 32°31' W 091°06'2 4.6
2017-Nov-22 20:30N 32°29' W 091°07'2 3.8
2017-Nov-22 20:00N 32°28' W 091°06'2 4.3
2017-Nov-22 19:30N 32°26' W 091°04'  
2017-Nov-18 06:54N 31°51' W 091°18'10 6.8
2017-Nov-18 05:24N 31°59' W 091°10'3 8.5
2017-Nov-18 05:00N 31°59' W 091°06'7 7.2
2017-Nov-18 04:06N 32°06' W 091°06'1 9.0
2017-Nov-18 04:00N 32°07' W 091°06'2 3.2
2017-Nov-18 03:30N 32°08' W 091°05'4 7.4
2017-Nov-18 02:59N 32°08' W 091°01'4 8.8
2017-Nov-18 02:30N 32°12' W 090°59'4 8.6
2017-Nov-18 02:00N 32°16' W 090°58'4 8.4
2017-Nov-18 01:30N 32°19' W 090°54'2 3.2
2017-Nov-18 01:00N 32°20' W 090°54'2 4.6
2017-Nov-18 00:30N 32°21' W 090°57'0 0.2
2017-Nov-18 00:00N 32°21' W 090°57'0 0.0
2017-Nov-17 23:30N 32°21' W 090°57'0 0.0
2017-Nov-17 23:00N 32°21' W 090°57'0 0.0
2017-Nov-17 22:30N 32°21' W 090°57'0 0.0
2017-Nov-17 22:00N 32°21' W 090°57'0 0.0
2017-Nov-17 21:30N 32°21' W 090°57'0 0.0
2017-Nov-17 21:00N 32°21' W 090°57'0 0.0
2017-Nov-17 20:30N 32°21' W 090°57'0 0.0
2017-Nov-17 20:00N 32°21' W 090°57'0 0.0
2017-Nov-17 19:30N 32°21' W 090°57'0 0.0
2017-Nov-17 19:00N 32°21' W 090°57'  

Dump ship's entire track history